Location: Newark
(45.5867°N, 8.8515°E)
Time: 13:32:07
(UTC+00:00)

N. Korean satellite - Visible Passes

Search period start: 13 December 2019 00:00
Search period end: 23 December 2019 00:00
Orbit: 455 x 507 km, 97.2° (Epoch: 12 December)

Date Brightness Start Highest point End Pass type
(mag) Time Alt. Az. Time Alt. Az. Time Alt. Az.
13 Dec 6.5 05:19:12 10° NNE 05:22:44 81° ESE 05:26:12 10° S visible
13 Dec 9.9 17:31:20 10° SW 17:33:32 15° W 17:35:42 10° NW visible
14 Dec 8.1 04:53:57 10° NNE 04:57:14 36° E 05:00:27 10° SSE visible
14 Dec 8.9 17:04:41 10° SSW 17:07:55 28° W 17:11:09 10° NW visible
15 Dec 9.4 04:29:08 10° NE 04:31:39 18° E 04:34:07 10° SE visible
15 Dec 7.3 06:02:02 10° N 06:05:06 28° WNW 06:08:06 10° SW visible
15 Dec 7.3 16:38:46 10° S 16:42:24 58° W 16:46:02 10° NNW visible
16 Dec 6.4 05:36:18 10° N 05:39:46 59° WNW 05:43:08 10° SSW visible
16 Dec 6.6 16:13:18 10° SSE 16:16:58 67° ENE 16:20:36 10° N visible
17 Dec 6.9 05:10:50 10° NNE 05:14:19 62° E 05:17:43 10° S visible
17 Dec 9.7 17:22:29 10° SW 17:25:05 18° W 17:27:41 10° NW visible
18 Dec 8.6 04:45:43 10° NE 04:48:47 29° E 04:51:49 10° SSE visible
18 Dec 7.9 06:19:31 10° NNW 06:22:00 19° WNW 06:24:27 10° WSW visible
18 Dec 8.4 16:56:07 10° SSW 16:59:30 35° W 17:02:52 10° NNW visible
19 Dec 9.7 04:21:08 10° NE 04:23:09 15° E 04:25:09 10° SE visible
19 Dec 7.0 05:53:31 10° N 05:56:43 35° WNW 05:59:52 10° SW visible
19 Dec 6.9 16:30:21 10° S 16:34:00 74° WSW 16:37:39 10° NNW visible
20 Dec 6.3 05:27:52 10° N 05:31:20 77° WNW 05:34:46 10° SSW visible
20 Dec 10.1 17:40:59 10° WSW 17:42:17 11° W 17:43:34 10° WNW visible
21 Dec 7.5 05:02:30 10° NNE 05:05:52 47° E 05:09:11 10° S visible
21 Dec 9.3 17:13:44 10° SSW 17:16:38 22° W 17:19:31 10° NW visible
22 Dec 9.0 04:37:29 10° NE 04:40:18 23° E 04:43:05 10° SSE visible
22 Dec 7.6 06:10:52 10° NNW 06:13:38 22° WNW 06:16:21 10° WSW visible
22 Dec 7.9 16:47:35 10° S 16:51:04 43° W 16:54:32 10° NNW visible
